Overview Statistics Trail Chart Weather Telemetry Raw packets
 

This is the latest recevied weather packets stored in our database for station/object KD4EG. If no packets are shown the sender has not sent any weather packets the latest 10 day(s).

<< 47 48 49 50 51 52 53 >>
Time Temp. Humidity Pressure Rain* Wind** Luminosity Snow
1788328037 23.33° C 87% 1021.7 hPa 0 mm - 0 W/m² -
1788327733 23.89° C 87% 1021.7 hPa 0 mm - 0 W/m² -
1788327428 23.89° C 87% 1021.5 hPa 0 mm - 0 W/m² -
1788327128 23.33° C 87% 1021.6 hPa 0 mm - 0 W/m² -
1788326827 23.89° C 87% 1021.5 hPa 0 mm - 0 W/m² -
1788326523 23.89° C 87% 1021.5 hPa 0 mm - 0 W/m² -
1788326222 23.89° C 87% 1021.4 hPa 0 mm - 0 W/m² -
1788325916 23.89° C 87% 1021.2 hPa 0 mm - 0 W/m² -
1788325611 23.89° C 86% 1021.2 hPa 0 mm - 0 W/m² -
1788325307 23.89° C 86% 1021.2 hPa 0 mm - 0 W/m² -
1788325001 24.44° C 86% 1021 hPa 0 mm - 0 W/m² -
1788324697 24.44° C 86% 1021.1 hPa 0 mm - 0 W/m² -
1788324392 24.44° C 86% 1021.1 hPa 0 mm - 0 W/m² -
1788324088 24.44° C 86% 1021.1 hPa 0 mm - 0 W/m² -
1788323783 24.44° C 85% 1021.2 hPa 0 mm - 0 W/m² -
1788323478 24.44° C 84% 1021.1 hPa 0 mm - 0 W/m² -
1788323177 24.44° C 84% 1021.1 hPa 0 mm - 0 W/m² -
1788322873 25° C 83% 1021.1 hPa 0 mm - 0 W/m² -
1788322572 25° C 83% 1020.9 hPa 0 mm - 0 W/m² -
1788322267 25.56° C 81% 1021 hPa 0 mm - 0 W/m² -
1788321961 25.56° C 81% 1020.9 hPa 0 mm - 0 W/m² -
1788321656 25.56° C 81% 1021 hPa 0 mm - 0 W/m² -
1788321354 25° C 81% 1021.1 hPa 0 mm - 0 W/m² -
1788321045 25.56° C 81% 1021.3 hPa 0 mm - 0 W/m² -
1788320744 25° C 82% 1021.1 hPa 0 mm - 0 W/m² -

* Rain latest hour (hover to see other rain measurements)
** Current wind speed in m/s (hover to see current wind gust speed)